Fort Wayne, IN

6:58 AM EST on November 13, 2019 (GMT -0500)
Fort Wayne International

Weather History for KFWA - September, 2019

Change the Weather History Date:

Tuesday, September 10, 2019

  Actual Average Record
Temperature  
Mean Temperature 74 °F 67 °F  
Max Temperature 88 °F 78 °F 97 °F (1983)
Min Temperature 60 °F 55 °F 39 °F (1924)
Degree Days  
Heating Degree Days 0 2  
Month to date heating degree days 10 13  
Since 1 July heating degree days 11 25  
Cooling Degree Days 9 4  
Month to date cooling degree days 24 44  
Year to date cooling degree days 862 761  
Growing Degree Days 24 (Base 50)    
Moisture  
Dew Point 66 °F    
Average Humidity 75    
Maximum Humidity 97    
Minimum Humidity 53    
Precipitation  
Precipitation 0.00 in 0.09 in 3.24 in (2014)
Month to date precipitation 0.15 0.96  
Year to date precipitation 28.42 27.80  
Sea Level Pressure  
Sea Level Pressure 30.14 in    
Wind  
Wind Speed 8 mph (SSW)    
Max Wind Speed 17 mph    
Max Gust Speed 22 mph    
Visibility 10 miles    
Events      
T = Trace of Precipitation, MM = Missing Value Source: NWS Daily Summary

Daily Weather History Graph

Daily Weather History Graph

Search for Another Location

Airport or City:

Astronomy

Sep. 10, 2019 Rise Set
Actual Time 7:16 AM EDT 7:58 PM EDT
Civil Twilight 6:48 AM EDT 8:26 PM EDT
Nautical Twilight 6:15 AM EDT 8:59 PM EDT
Astronomical Twilight 5:41 AM EDT 9:33 PM EDT
Moon 6:36 PM EDT (9/10) 3:39 AM EDT (9/10)
Length of Visible Light 13h 38m
Length of Day
12h 42m
Waxing Gibbous, 89% of the Moon is Illuminated
Sep 10
Waxing Gibbous
Sep 14
Full
Sep 21
Last Quarter
Sep 28
New
Oct 5
First Quarter

Hourly Weather History & Observations

Time (EDT) Temp. Heat Index Dew Point Humidity Pressure Visibility Wind Dir Wind Speed Gust Speed Precip Events Conditions
12:54 AM 64.9 °F - 61.0 °F 87% 30.18 in 10.0 mi East 5.8 mph - N/A   Partly Cloudy
1:54 AM 63.0 °F - 60.1 °F 90% 30.18 in 10.0 mi East 3.5 mph - N/A   Scattered Clouds
2:54 AM 63.0 °F - 60.1 °F 90% 30.17 in 10.0 mi SE 5.8 mph - N/A   Mostly Cloudy
3:54 AM 63.0 °F - 60.1 °F 90% 30.15 in 10.0 mi SE 5.8 mph - N/A   Mostly Cloudy
4:54 AM 63.0 °F - 60.1 °F 90% 30.15 in 10.0 mi SSE 3.5 mph - N/A   Mostly Cloudy
5:54 AM 62.1 °F - 60.1 °F 93% 30.15 in 10.0 mi SSE 3.5 mph - N/A   Mostly Cloudy
6:54 AM 60.1 °F - 59.0 °F 96% 30.17 in 10.0 mi South 3.5 mph - N/A   Scattered Clouds
7:54 AM 64.0 °F - 61.0 °F 90% 30.17 in 10.0 mi South 6.9 mph - N/A   Mostly Cloudy
8:54 AM 70.0 °F - 64.0 °F 81% 30.17 in 10.0 mi SSW 9.2 mph - N/A   Mostly Cloudy
9:54 AM 73.0 °F - 66.0 °F 79% 30.17 in 10.0 mi South 10.4 mph - N/A   Mostly Cloudy
10:54 AM 77.0 °F - 66.9 °F 71% 30.16 in 10.0 mi SSW 10.4 mph - N/A   Scattered Clouds
11:54 AM 82.0 °F 84.5 °F 66.9 °F 60% 30.15 in 10.0 mi SSW 12.7 mph 19.6 mph N/A   Mostly Cloudy
12:54 PM 84.9 °F 88.8 °F 69.1 °F 59% 30.15 in 10.0 mi SSW 12.7 mph - N/A   Mostly Cloudy
1:54 PM 87.1 °F 90.6 °F 68.0 °F 53% 30.15 in 10.0 mi SW 15.0 mph 19.6 mph N/A   Mostly Cloudy
2:54 PM 88.0 °F 92.1 °F 69.1 °F 53% 30.14 in 10.0 mi SW 17.3 mph 21.9 mph N/A   Mostly Cloudy
3:54 PM 87.1 °F 91.3 °F 69.1 °F 55% 30.12 in 10.0 mi SSW 12.7 mph 19.6 mph N/A   Mostly Cloudy
4:54 PM 88.0 °F 92.9 °F 70.0 °F 55% 30.11 in 10.0 mi SW 12.7 mph - N/A   Mostly Cloudy
5:54 PM 86.0 °F 90.7 °F 70.0 °F 59% 30.10 in 10.0 mi SW 10.4 mph - N/A   Mostly Cloudy
6:54 PM 82.9 °F 87.5 °F 71.1 °F 67% 30.10 in 10.0 mi SSW 8.1 mph - N/A   Mostly Cloudy
7:54 PM 78.1 °F - 70.0 °F 76% 30.10 in 10.0 mi SSW 5.8 mph - N/A   Mostly Cloudy
8:54 PM 75.9 °F - 70.0 °F 82% 30.10 in 10.0 mi SSW 5.8 mph - N/A   Mostly Cloudy
9:54 PM 73.9 °F - 69.1 °F 85% 30.11 in 10.0 mi SW 5.8 mph - N/A   Overcast
10:54 PM 73.0 °F - 68.0 °F 84% 30.13 in 10.0 mi SSW 6.9 mph - N/A   Mostly Cloudy
11:54 PM 71.1 °F - 68.0 °F 90% 30.13 in 10.0 mi SW 4.6 mph - N/A   Scattered Clouds